contact:dominique.lefevre@mio.osupytheas.fr, maurice.libes@osupytheas.fr, didier.mallarino@osupytheas.fr
Project:EMSO http://www.emso-fr.org/EMSO-France
Depth: 2436.0 m
Title:EMSO Ligure Ouest : Data MII capteur MICROCAT
DateTime_Computer,Latitude,Longitude,Temperature,Conductivity,Pressure,DateTime_Instrument
DateTime_Computer,Latitude,Longitude,degC,S m-1,dbar,DateTime_Instrument
2021-01-16T00:02:33Z,42.805,6.029,13.2980,4.59986,2470.04,2021-1-16T02:03:34Z
2021-01-16T00:05:36Z,42.805,6.029,13.2980,4.59986,2470.063,2021-1-16T02:06:37Z
2021-01-16T00:08:39Z,42.805,6.029,13.2983,4.59986,2470.053,2021-1-16T02:09:41Z
2021-01-16T00:11:42Z,42.805,6.029,13.2982,4.59986,2470.04,2021-1-16T02:12:44Z
2021-01-16T00:14:45Z,42.805,6.029,13.2983,4.59986,2470.1,2021-1-16T02:15:47Z
2021-01-16T00:17:48Z,42.805,6.029,13.2984,4.59986,2470.063,2021-1-16T02:18:50Z
2021-01-16T00:20:52Z,42.805,6.029,13.2980,4.59985,2470.04,2021-1-16T02:21:53Z
2021-01-16T00:23:55Z,42.805,6.029,13.2982,4.59985,2470.03,2021-1-16T02:24:56Z
2021-01-16T00:26:58Z,42.805,6.029,13.2982,4.59986,2470.077,2021-1-16T02:27:59Z
2021-01-16T00:30:01Z,42.805,6.029,13.2982,4.59986,2470.03,2021-1-16T02:31:02Z
2021-01-16T00:33:04Z,42.805,6.029,13.2982,4.59988,2470.063,2021-1-16T02:34:06Z
2021-01-16T00:36:07Z,42.805,6.029,13.2983,4.59987,2470.04,2021-1-16T02:37:09Z
2021-01-16T00:39:10Z,42.805,6.029,13.2979,4.59985,2470.03,2021-1-16T02:40:12Z
2021-01-16T00:42:13Z,42.805,6.029,13.2982,4.59992,2470.077,2021-1-16T02:43:15Z
2021-01-16T00:45:17Z,42.805,6.029,13.2983,4.59985,2470.077,2021-1-16T02:46:18Z
2021-01-16T00:48:20Z,42.805,6.029,13.2984,4.59985,2469.993,2021-1-16T02:49:21Z
2021-01-16T00:51:23Z,42.805,6.029,13.2981,4.59986,2470.053,2021-1-16T02:52:24Z
2021-01-16T00:54:26Z,42.805,6.029,13.2987,4.59986,2470.04,2021-1-16T02:55:27Z
2021-01-16T00:57:29Z,42.805,6.029,13.2982,4.59988,2470.053,2021-1-16T02:58:31Z
2021-01-16T01:00:32Z,42.805,6.029,13.2983,4.59986,2470.077,2021-1-16T03:01:34Z
2021-01-16T01:03:35Z,42.805,6.029,13.2981,4.59986,2470.087,2021-1-16T03:04:37Z
2021-01-16T01:06:38Z,42.805,6.029,13.2983,4.59986,2470.017,2021-1-16T03:07:40Z
2021-01-16T01:09:42Z,42.805,6.029,13.2983,4.59985,2470.017,2021-1-16T03:10:43Z
2021-01-16T01:12:45Z,42.805,6.029,13.2983,4.59986,2470.04,2021-1-16T03:13:46Z
2021-01-16T01:15:48Z,42.805,6.029,13.2982,4.59986,2470.04,2021-1-16T03:16:49Z
2021-01-16T01:18:51Z,42.805,6.029,13.2982,4.59986,2470.04,2021-1-16T03:19:52Z
2021-01-16T01:21:54Z,42.805,6.029,13.2983,4.59991,2470.03,2021-1-16T03:22:55Z
2021-01-16T01:24:57Z,42.805,6.029,13.2982,4.59986,2469.993,2021-1-16T03:25:59Z
2021-01-16T01:28:00Z,42.805,6.029,13.2985,4.59985,2469.993,2021-1-16T03:29:02Z
2021-01-16T01:31:03Z,42.805,6.029,13.2985,4.59986,2470.04,2021-1-16T03:32:05Z
2021-01-16T01:34:07Z,42.805,6.029,13.2983,4.59986,2470.053,2021-1-16T03:35:08Z
2021-01-16T01:37:10Z,42.805,6.029,13.2982,4.59986,2469.993,2021-1-16T03:38:11Z
2021-01-16T01:40:13Z,42.805,6.029,13.2984,4.59986,2469.993,2021-1-16T03:41:14Z
2021-01-16T01:43:16Z,42.805,6.029,13.2985,4.59987,2470.04,2021-1-16T03:44:17Z
2021-01-16T01:46:19Z,42.805,6.029,13.2981,4.59985,2470.007,2021-1-16T03:47:20Z
2021-01-16T01:49:22Z,42.805,6.029,13.2984,4.59986,2470.03,2021-1-16T03:50:24Z
2021-01-16T01:52:25Z,42.805,6.029,13.2983,4.59986,2470.04,2021-1-16T03:53:27Z
2021-01-16T01:55:28Z,42.805,6.029,13.2983,4.59985,2470.03,2021-1-16T03:56:30Z
2021-01-16T01:58:31Z,42.805,6.029,13.2984,4.59985,2470.03,2021-1-16T03:59:33Z
2021-01-16T02:01:35Z,42.805,6.029,13.2983,4.59986,2470.017,2021-1-16T04:02:36Z
2021-01-16T02:04:38Z,42.805,6.029,13.2983,4.59986,2470.017,2021-1-16T04:05:39Z
2021-01-16T02:07:41Z,42.805,6.029,13.2981,4.59986,2469.984,2021-1-16T04:08:42Z
2021-01-16T02:10:44Z,42.805,6.029,13.2983,4.59986,2469.993,2021-1-16T04:11:45Z
2021-01-16T02:13:47Z,42.805,6.029,13.2984,4.59985,2470.03,2021-1-16T04:14:49Z
2021-01-16T02:16:50Z,42.805,6.029,13.2982,4.59985,2469.993,2021-1-16T04:17:52Z
2021-01-16T02:19:53Z,42.805,6.029,13.2983,4.59985,2470.007,2021-1-16T04:20:55Z
2021-01-16T02:22:56Z,42.805,6.029,13.2983,4.59986,2470.017,2021-1-16T04:23:58Z
2021-01-16T02:26:00Z,42.805,6.029,13.2982,4.59986,2470.017,2021-1-16T04:27:01Z
2021-01-16T02:29:03Z,42.805,6.029,13.2982,4.59986,2470.007,2021-1-16T04:30:04Z
2021-01-16T02:32:06Z,42.805,6.029,13.2983,4.59985,2469.97,2021-1-16T04:33:07Z
2021-01-16T02:35:09Z,42.805,6.029,13.2982,4.59986,2469.993,2021-1-16T04:36:10Z
2021-01-16T02:38:12Z,42.805,6.029,13.2979,4.59986,2470.007,2021-1-16T04:39:14Z
2021-01-16T02:41:15Z,42.805,6.029,13.2981,4.59986,2469.993,2021-1-16T04:42:17Z
2021-01-16T02:44:18Z,42.805,6.029,13.2983,4.59985,2469.993,2021-1-16T04:45:20Z
2021-01-16T02:47:21Z,42.805,6.029,13.2982,4.59986,2470.007,2021-1-16T04:48:23Z
2021-01-16T02:50:25Z,42.805,6.029,13.2984,4.59984,2470.007,2021-1-16T04:51:26Z
2021-01-16T02:53:28Z,42.805,6.029,13.2982,4.59986,2470.017,2021-1-16T04:54:29Z
2021-01-16T02:56:31Z,42.805,6.029,13.2981,4.59986,2469.979,2021-1-16T04:57:32Z
2021-01-16T02:59:34Z,42.805,6.029,13.2979,4.59985,2469.993,2021-1-16T05:00:35Z
2021-01-16T03:02:37Z,42.805,6.029,13.2983,4.59986,2470.007,2021-1-16T05:03:39Z
2021-01-16T03:05:40Z,42.805,6.029,13.2982,4.59985,2469.993,2021-1-16T05:06:42Z
2021-01-16T03:08:43Z,42.805,6.029,13.2985,4.59986,2469.993,2021-1-16T05:09:45Z
2021-01-16T03:11:46Z,42.805,6.029,13.2983,4.59986,2469.993,2021-1-16T05:12:48Z
2021-01-16T03:14:50Z,42.805,6.029,13.2983,4.59984,2470.017,2021-1-16T05:15:51Z
2021-01-16T03:17:53Z,42.805,6.029,13.2981,4.59986,2470.007,2021-1-16T05:18:54Z
2021-01-16T03:20:56Z,42.805,6.029,13.2984,4.59986,2470.03,2021-1-16T05:21:57Z
2021-01-16T03:23:59Z,42.805,6.029,13.2983,4.59986,2469.984,2021-1-16T05:25:00Z
2021-01-16T03:27:02Z,42.805,6.029,13.2983,4.59987,2470.007,2021-1-16T05:28:04Z
2021-01-16T03:30:05Z,42.805,6.029,13.2982,4.59986,2469.993,2021-1-16T05:31:07Z
2021-01-16T03:33:08Z,42.805,6.029,13.2983,4.59985,2469.993,2021-1-16T05:34:10Z
2021-01-16T03:36:11Z,42.805,6.029,13.2985,4.59985,2470.03,2021-1-16T05:37:13Z
2021-01-16T03:39:15Z,42.805,6.029,13.2983,4.59985,2470.017,2021-1-16T05:40:16Z
2021-01-16T03:42:18Z,42.805,6.029,13.2984,4.59985,2470.007,2021-1-16T05:43:19Z
2021-01-16T03:45:21Z,42.805,6.029,13.2980,4.59992,2469.993,2021-1-16T05:46:22Z
2021-01-16T03:48:24Z,42.805,6.029,13.2983,4.59986,2469.993,2021-1-16T05:49:25Z
2021-01-16T03:51:27Z,42.805,6.029,13.2983,4.59986,2469.97,2021-1-16T05:52:28Z
2021-01-16T03:54:30Z,42.805,6.029,13.2982,4.59986,2470.03,2021-1-16T05:55:32Z
2021-01-16T03:57:33Z,42.805,6.029,13.2985,4.59984,2470.007,2021-1-16T05:58:35Z
2021-01-16T04:00:36Z,42.805,6.029,13.2983,4.59985,2469.993,2021-1-16T06:01:38Z
2021-01-16T04:03:39Z,42.805,6.029,13.2981,4.59986,2469.984,2021-1-16T06:04:41Z
2021-01-16T04:06:43Z,42.805,6.029,13.2983,4.59986,2469.97,2021-1-16T06:07:44Z
2021-01-16T04:09:46Z,42.805,6.029,13.2983,4.59986,2469.993,2021-1-16T06:10:47Z
2021-01-16T04:12:49Z,42.805,6.029,13.2986,4.59985,2469.993,2021-1-16T06:13:50Z
2021-01-16T04:15:52Z,42.805,6.029,13.2985,4.59985,2470.007,2021-1-16T06:16:53Z
2021-01-16T04:18:55Z,42.805,6.029,13.2983,4.59984,2470.017,2021-1-16T06:19:57Z
2021-01-16T04:21:58Z,42.805,6.029,13.2983,4.59985,2469.97,2021-1-16T06:23:00Z
2021-01-16T04:25:01Z,42.805,6.029,13.2984,4.59986,2470.03,2021-1-16T06:26:03Z
2021-01-16T04:28:04Z,42.805,6.029,13.2983,4.59986,2469.993,2021-1-16T06:29:06Z
2021-01-16T04:31:08Z,42.805,6.029,13.2983,4.59986,2470.017,2021-1-16T06:32:09Z
2021-01-16T04:34:11Z,42.805,6.029,13.2983,4.59985,2470.03,2021-1-16T06:35:12Z
2021-01-16T04:37:14Z,42.805,6.029,13.2985,4.59986,2470.017,2021-1-16T06:38:15Z
2021-01-16T04:40:17Z,42.805,6.029,13.2984,4.59988,2470.03,2021-1-16T06:41:18Z
2021-01-16T04:43:20Z,42.805,6.029,13.2985,4.59985,2470.04,2021-1-16T06:44:22Z
2021-01-16T04:46:23Z,42.805,6.029,13.2982,4.59986,2470.04,2021-1-16T06:47:25Z
2021-01-16T04:49:26Z,42.805,6.029,13.2981,4.59985,2470.017,2021-1-16T06:50:28Z
2021-01-16T04:52:29Z,42.805,6.029,13.2986,4.59986,2470.053,2021-1-16T06:53:31Z
2021-01-16T04:55:33Z,42.805,6.029,13.2985,4.59986,2470.053,2021-1-16T06:56:34Z
2021-01-16T04:58:36Z,42.805,6.029,13.2984,4.59987,2470.04,2021-1-16T06:59:37Z
2021-01-16T05:01:39Z,42.805,6.029,13.2982,4.59987,2470.049,2021-1-16T07:02:40Z
2021-01-16T05:04:42Z,42.805,6.029,13.2982,4.59985,2470.063,2021-1-16T07:05:43Z
2021-01-16T05:07:45Z,42.805,6.029,13.2980,4.59985,2470.087,2021-1-16T07:08:47Z
2021-01-16T05:10:48Z,42.805,6.029,13.2983,4.59985,2470.053,2021-1-16T07:11:50Z
2021-01-16T05:13:51Z,42.805,6.029,13.2984,4.59985,2470.087,2021-1-16T07:14:53Z
2021-01-16T05:16:54Z,42.805,6.029,13.2987,4.59986,2470.053,2021-1-16T07:17:56Z
2021-01-16T05:19:58Z,42.805,6.029,13.2985,4.59986,2470.063,2021-1-16T07:20:59Z
2021-01-16T05:23:01Z,42.805,6.029,13.2982,4.59990,2470.063,2021-1-16T07:24:02Z
2021-01-16T05:26:04Z,42.805,6.029,13.2983,4.59985,2470.073,2021-1-16T07:27:05Z
2021-01-16T05:29:07Z,42.805,6.029,13.2983,4.59987,2470.063,2021-1-16T07:30:08Z
2021-01-16T05:32:10Z,42.805,6.029,13.2986,4.59986,2470.026,2021-1-16T07:33:12Z
2021-01-16T05:35:13Z,42.805,6.029,13.2985,4.59986,2470.04,2021-1-16T07:36:15Z
2021-01-16T05:38:16Z,42.805,6.029,13.2986,4.59986,2470.1,2021-1-16T07:39:18Z
2021-01-16T05:41:19Z,42.805,6.029,13.2982,4.59991,2470.077,2021-1-16T07:42:21Z
2021-01-16T05:44:23Z,42.805,6.029,13.2988,4.59986,2470.087,2021-1-16T07:45:24Z
2021-01-16T05:47:26Z,42.805,6.029,13.2985,4.59986,2470.063,2021-1-16T07:48:27Z
2021-01-16T05:50:29Z,42.805,6.029,13.2982,4.59986,2470.124,2021-1-16T07:51:30Z
2021-01-16T05:53:32Z,42.805,6.029,13.2983,4.59986,2470.087,2021-1-16T07:54:33Z
2021-01-16T05:56:35Z,42.805,6.029,13.2983,4.59986,2470.087,2021-1-16T07:57:37Z
2021-01-16T05:59:38Z,42.805,6.029,13.2985,4.59987,2470.087,2021-1-16T08:00:40Z
2021-01-16T06:02:41Z,42.805,6.029,13.2979,4.59986,2470.087,2021-1-16T08:03:43Z
2021-01-16T06:05:44Z,42.805,6.029,13.2983,4.59987,2470.11,2021-1-16T08:06:46Z
2021-01-16T06:08:48Z,42.805,6.029,13.2984,4.59986,2470.11,2021-1-16T08:09:49Z
2021-01-16T06:11:51Z,42.805,6.029,13.2984,4.59986,2470.11,2021-1-16T08:12:52Z
2021-01-16T06:14:54Z,42.805,6.029,13.2981,4.59986,2470.133,2021-1-16T08:15:55Z
2021-01-16T06:17:57Z,42.805,6.029,13.2982,4.59988,2470.11,2021-1-16T08:18:58Z
2021-01-16T06:21:00Z,42.805,6.029,13.2980,4.59989,2470.147,2021-1-16T08:22:02Z
2021-01-16T06:24:03Z,42.805,6.029,13.2986,4.59986,2470.171,2021-1-16T08:25:05Z
2021-01-16T06:27:06Z,42.805,6.029,13.2985,4.59986,2470.147,2021-1-16T08:28:08Z
2021-01-16T06:30:09Z,42.805,6.029,13.2982,4.59986,2470.171,2021-1-16T08:31:11Z
2021-01-16T06:33:13Z,42.805,6.029,13.2985,4.59986,2470.147,2021-1-16T08:34:14Z
2021-01-16T06:36:16Z,42.805,6.029,13.2984,4.59987,2470.156,2021-1-16T08:37:17Z
2021-01-16T06:39:19Z,42.805,6.029,13.2983,4.59986,2470.156,2021-1-16T08:40:20Z
2021-01-16T06:42:22Z,42.805,6.029,13.2982,4.59987,2470.18,2021-1-16T08:43:23Z
2021-01-16T06:45:25Z,42.805,6.029,13.2986,4.59986,2470.156,2021-1-16T08:46:26Z
2021-01-16T06:48:28Z,42.805,6.029,13.2983,4.59988,2470.156,2021-1-16T08:49:30Z
2021-01-16T06:51:31Z,42.805,6.029,13.2983,4.59987,2470.171,2021-1-16T08:52:33Z
2021-01-16T06:54:34Z,42.805,6.029,13.2983,4.59987,2470.194,2021-1-16T08:55:36Z
2021-01-16T06:57:38Z,42.805,6.029,13.2986,4.59986,2470.203,2021-1-16T08:58:39Z
2021-01-16T07:00:41Z,42.805,6.029,13.2986,4.59988,2470.18,2021-1-16T09:01:42Z
2021-01-16T07:03:44Z,42.805,6.029,13.2983,4.59986,2470.217,2021-1-16T09:04:45Z
2021-01-16T07:06:47Z,42.805,6.029,13.2984,4.59986,2470.203,2021-1-16T09:07:48Z
2021-01-16T07:09:50Z,42.805,6.029,13.2982,4.59986,2470.203,2021-1-16T09:10:51Z
2021-01-16T07:12:53Z,42.805,6.029,13.2984,4.59986,2470.203,2021-1-16T09:13:55Z
2021-01-16T07:15:56Z,42.805,6.029,13.2986,4.59985,2470.203,2021-1-16T09:16:58Z
2021-01-16T07:18:59Z,42.805,6.029,13.2983,4.59987,2470.24,2021-1-16T09:20:01Z
2021-01-16T07:22:02Z,42.805,6.029,13.2982,4.59987,2470.227,2021-1-16T09:23:04Z
2021-01-16T07:25:06Z,42.805,6.029,13.2984,4.59986,2470.24,2021-1-16T09:26:07Z
2021-01-16T07:28:09Z,42.805,6.029,13.2983,4.59986,2470.227,2021-1-16T09:29:10Z
2021-01-16T07:31:12Z,42.805,6.029,13.2982,4.59986,2470.25,2021-1-16T09:32:13Z
2021-01-16T07:34:15Z,42.805,6.029,13.2983,4.59986,2470.25,2021-1-16T09:35:16Z
2021-01-16T07:37:18Z,42.805,6.029,13.2986,4.59986,2470.264,2021-1-16T09:38:20Z
2021-01-16T07:40:21Z,42.805,6.029,13.2985,4.59988,2470.227,2021-1-16T09:41:23Z
2021-01-16T07:43:24Z,42.805,6.029,13.2985,4.59987,2470.25,2021-1-16T09:44:26Z
2021-01-16T07:46:27Z,42.805,6.029,13.2984,4.59988,2470.25,2021-1-16T09:47:29Z
2021-01-16T07:49:31Z,42.805,6.029,13.2983,4.59988,2470.273,2021-1-16T09:50:32Z
2021-01-16T07:52:34Z,42.805,6.029,13.2983,4.59986,2470.264,2021-1-16T09:53:35Z
2021-01-16T07:55:37Z,42.805,6.029,13.2982,4.59987,2470.26,2021-1-16T09:56:38Z
2021-01-16T07:58:40Z,42.805,6.029,13.2985,4.59987,2470.273,2021-1-16T09:59:41Z
2021-01-16T08:01:43Z,42.805,6.029,13.2982,4.59989,2470.31,2021-1-16T10:02:45Z
2021-01-16T08:04:46Z,42.805,6.029,13.2983,4.59987,2470.25,2021-1-16T10:05:48Z
2021-01-16T08:07:49Z,42.805,6.029,13.2983,4.59989,2470.273,2021-1-16T10:08:51Z
2021-01-16T08:10:52Z,42.805,6.029,13.2986,4.59987,2470.297,2021-1-16T10:11:54Z
2021-01-16T08:13:56Z,42.805,6.029,13.2983,4.59987,2470.297,2021-1-16T10:14:57Z
2021-01-16T08:16:59Z,42.805,6.029,13.2984,4.59988,2470.334,2021-1-16T10:18:00Z
2021-01-16T08:20:02Z,42.805,6.029,13.2982,4.59988,2470.273,2021-1-16T10:21:03Z
2021-01-16T08:23:05Z,42.805,6.029,13.2982,4.59992,2470.273,2021-1-16T10:24:06Z
2021-01-16T08:26:08Z,42.805,6.029,13.2983,4.59988,2470.297,2021-1-16T10:27:10Z
2021-01-16T08:29:11Z,42.805,6.029,13.2982,4.59987,2470.334,2021-1-16T10:30:13Z
2021-01-16T08:32:14Z,42.805,6.029,13.2984,4.59987,2470.31,2021-1-16T10:33:16Z
2021-01-16T08:35:17Z,42.805,6.029,13.2983,4.59988,2470.31,2021-1-16T10:36:19Z
2021-01-16T08:38:21Z,42.805,6.029,13.2983,4.59989,2470.32,2021-1-16T10:39:22Z
2021-01-16T08:41:24Z,42.805,6.029,13.2986,4.59988,2470.297,2021-1-16T10:42:25Z
2021-01-16T08:44:27Z,42.805,6.029,13.2982,4.59987,2470.334,2021-1-16T10:45:28Z
2021-01-16T08:47:30Z,42.805,6.029,13.2986,4.59988,2470.334,2021-1-16T10:48:31Z
2021-01-16T08:50:33Z,42.805,6.029,13.2984,4.59988,2470.334,2021-1-16T10:51:35Z
2021-01-16T08:53:36Z,42.805,6.029,13.2985,4.59988,2470.366,2021-1-16T10:54:38Z
2021-01-16T08:56:39Z,42.805,6.029,13.2984,4.59987,2470.334,2021-1-16T10:57:41Z
2021-01-16T08:59:43Z,42.805,6.029,13.2983,4.59988,2470.334,2021-1-16T11:00:44Z
2021-01-16T09:02:46Z,42.805,6.029,13.2986,4.59991,2470.357,2021-1-16T11:03:47Z
2021-01-16T09:05:49Z,42.805,6.029,13.2984,4.59987,2470.334,2021-1-16T11:06:50Z
2021-01-16T09:08:52Z,42.805,6.029,13.2984,4.59988,2470.32,2021-1-16T11:09:53Z
2021-01-16T09:11:55Z,42.805,6.029,13.2982,4.59990,2470.357,2021-1-16T11:12:56Z
2021-01-16T09:14:58Z,42.805,6.029,13.2983,4.59988,2470.31,2021-1-16T11:16:00Z
2021-01-16T09:18:01Z,42.805,6.029,13.2984,4.59988,2470.343,2021-1-16T11:19:03Z
2021-01-16T09:21:04Z,42.805,6.029,13.2986,4.59988,2470.32,2021-1-16T11:22:06Z
2021-01-16T09:24:07Z,42.805,6.029,13.2983,4.59988,2470.343,2021-1-16T11:25:09Z
2021-01-16T09:27:11Z,42.805,6.029,13.2985,4.59995,2470.357,2021-1-16T11:28:12Z
2021-01-16T09:30:14Z,42.805,6.029,13.2984,4.59988,2470.32,2021-1-16T11:31:15Z
2021-01-16T09:33:17Z,42.805,6.029,13.2984,4.59989,2470.334,2021-1-16T11:34:18Z
2021-01-16T09:36:20Z,42.805,6.029,13.2984,4.59988,2470.357,2021-1-16T11:37:22Z
2021-01-16T09:39:23Z,42.805,6.029,13.2982,4.59991,2470.31,2021-1-16T11:40:25Z
2021-01-16T09:42:26Z,42.805,6.029,13.2982,4.59988,2470.366,2021-1-16T11:43:28Z
2021-01-16T09:45:29Z,42.805,6.029,13.2983,4.59994,2470.357,2021-1-16T11:46:31Z
2021-01-16T09:48:33Z,42.805,6.029,13.2986,4.59988,2470.343,2021-1-16T11:49:34Z
2021-01-16T09:51:36Z,42.805,6.029,13.2985,4.59988,2470.366,2021-1-16T11:52:37Z
2021-01-16T09:54:39Z,42.805,6.029,13.2987,4.59989,2470.343,2021-1-16T11:55:40Z
2021-01-16T09:57:42Z,42.805,6.029,13.2983,4.59988,2470.366,2021-1-16T11:58:43Z
2021-01-16T10:00:45Z,42.805,6.029,13.2983,4.59988,2470.334,2021-1-16T12:01:47Z
2021-01-16T10:03:48Z,42.805,6.029,13.2983,4.59990,2470.343,2021-1-16T12:04:50Z
2021-01-16T10:06:51Z,42.805,6.029,13.2986,4.59991,2470.32,2021-1-16T12:07:53Z
2021-01-16T10:09:54Z,42.805,6.029,13.2987,4.59987,2470.32,2021-1-16T12:10:56Z
2021-01-16T10:12:58Z,42.805,6.029,13.2983,4.59988,2470.343,2021-1-16T12:13:59Z
2021-01-16T10:16:01Z,42.805,6.029,13.2987,4.59988,2470.357,2021-1-16T12:17:02Z
2021-01-16T10:19:04Z,42.805,6.029,13.2983,4.59988,2470.343,2021-1-16T12:20:05Z
2021-01-16T10:22:07Z,42.805,6.029,13.2985,4.59988,2470.334,2021-1-16T12:23:08Z
2021-01-16T10:25:10Z,42.805,6.029,13.2982,4.59992,2470.343,2021-1-16T12:26:12Z
2021-01-16T10:28:13Z,42.805,6.029,13.2984,4.59989,2470.357,2021-1-16T12:29:15Z
2021-01-16T10:31:16Z,42.805,6.029,13.2984,4.59988,2470.32,2021-1-16T12:32:18Z
2021-01-16T10:34:19Z,42.805,6.029,13.2982,4.59988,2470.366,2021-1-16T12:35:21Z
2021-01-16T10:37:23Z,42.805,6.029,13.2982,4.59993,2470.334,2021-1-16T12:38:24Z
2021-01-16T10:40:26Z,42.805,6.029,13.2984,4.59988,2470.32,2021-1-16T12:41:27Z
2021-01-16T10:43:29Z,42.805,6.029,13.2984,4.59987,2470.32,2021-1-16T12:44:30Z
2021-01-16T10:46:32Z,42.805,6.029,13.2984,4.59987,2470.334,2021-1-16T12:47:33Z
2021-01-16T10:49:35Z,42.805,6.029,13.2983,4.59988,2470.343,2021-1-16T12:50:37Z
2021-01-16T10:52:38Z,42.805,6.029,13.2986,4.59990,2470.366,2021-1-16T12:53:40Z
2021-01-16T10:55:41Z,42.805,6.029,13.2984,4.59988,2470.32,2021-1-16T12:56:43Z
2021-01-16T10:58:44Z,42.805,6.029,13.2982,4.59987,2470.306,2021-1-16T12:59:46Z
2021-01-16T11:01:48Z,42.805,6.029,13.2986,4.59988,2470.297,2021-1-16T13:02:49Z
2021-01-16T11:04:51Z,42.805,6.029,13.2990,4.59988,2470.32,2021-1-16T13:05:52Z
2021-01-16T11:07:54Z,42.805,6.029,13.2984,4.59988,2470.297,2021-1-16T13:08:55Z
2021-01-16T11:10:57Z,42.805,6.029,13.2983,4.59988,2470.357,2021-1-16T13:11:58Z
2021-01-16T11:14:00Z,42.805,6.029,13.2983,4.59988,2470.32,2021-1-16T13:15:02Z
2021-01-16T11:17:03Z,42.805,6.029,13.2983,4.59989,2470.32,2021-1-16T13:18:05Z
2021-01-16T11:20:06Z,42.805,6.029,13.2989,4.59991,2470.343,2021-1-16T13:21:08Z
2021-01-16T11:23:09Z,42.805,6.029,13.2983,4.59991,2470.32,2021-1-16T13:24:11Z
2021-01-16T11:26:13Z,42.805,6.029,13.2982,4.59988,2470.32,2021-1-16T13:27:14Z
2021-01-16T11:29:16Z,42.805,6.029,13.2982,4.59989,2470.297,2021-1-16T13:30:17Z
2021-01-16T11:32:19Z,42.805,6.029,13.2983,4.59990,2470.343,2021-1-16T13:33:20Z
2021-01-16T11:35:22Z,42.805,6.029,13.2985,4.59991,2470.31,2021-1-16T13:36:24Z
2021-01-16T11:38:25Z,42.805,6.029,13.2987,4.59988,2470.31,2021-1-16T13:39:27Z
2021-01-16T11:41:28Z,42.805,6.029,13.2981,4.59988,2470.32,2021-1-16T13:42:30Z
2021-01-16T11:44:31Z,42.805,6.029,13.2983,4.59988,2470.287,2021-1-16T13:45:33Z
2021-01-16T11:47:35Z,42.805,6.029,13.2986,4.59988,2470.297,2021-1-16T13:48:36Z
2021-01-16T11:50:38Z,42.805,6.029,13.2984,4.59993,2470.31,2021-1-16T13:51:39Z
2021-01-16T11:53:41Z,42.805,6.029,13.2983,4.59989,2470.297,2021-1-16T13:54:42Z
2021-01-16T11:56:44Z,42.805,6.029,13.2983,4.59989,2470.31,2021-1-16T13:57:45Z
2021-01-16T11:59:47Z,42.805,6.029,13.2983,4.59988,2470.32,2021-1-16T14:00:49Z
2021-01-16T12:02:50Z,42.805,6.029,13.2986,4.59988,2470.31,2021-1-16T14:03:52Z
2021-01-16T12:05:53Z,42.805,6.029,13.2982,4.59988,2470.273,2021-1-16T14:06:55Z
2021-01-16T12:08:56Z,42.805,6.029,13.2984,4.59988,2470.287,2021-1-16T14:09:58Z
2021-01-16T12:12:00Z,42.805,6.029,13.2984,4.59987,2470.25,2021-1-16T14:13:01Z
2021-01-16T12:15:03Z,42.805,6.029,13.2990,4.59987,2470.31,2021-1-16T14:16:04Z
2021-01-16T12:18:06Z,42.805,6.029,13.2982,4.59991,2470.31,2021-1-16T14:19:07Z
2021-01-16T12:21:09Z,42.805,6.029,13.2983,4.59987,2470.273,2021-1-16T14:22:10Z
2021-01-16T12:24:12Z,42.805,6.029,13.2987,4.59988,2470.297,2021-1-16T14:25:14Z
2021-01-16T12:27:15Z,42.805,6.029,13.2982,4.59988,2470.273,2021-1-16T14:28:17Z
2021-01-16T12:30:18Z,42.805,6.029,13.2986,4.59993,2470.273,2021-1-16T14:31:20Z
2021-01-16T12:33:21Z,42.805,6.029,13.2980,4.59991,2470.297,2021-1-16T14:34:23Z
2021-01-16T12:36:25Z,42.805,6.029,13.2986,4.59987,2470.287,2021-1-16T14:37:26Z
2021-01-16T12:39:28Z,42.805,6.029,13.2982,4.59988,2470.297,2021-1-16T14:40:29Z
2021-01-16T12:42:31Z,42.805,6.029,13.2982,4.59987,2470.273,2021-1-16T14:43:32Z
2021-01-16T12:45:34Z,42.805,6.029,13.2989,4.59988,2470.287,2021-1-16T14:46:35Z
2021-01-16T12:48:37Z,42.805,6.029,13.2982,4.59988,2470.273,2021-1-16T14:49:39Z
2021-01-16T12:51:40Z,42.805,6.029,13.2986,4.59990,2470.273,2021-1-16T14:52:42Z
2021-01-16T12:54:43Z,42.805,6.029,13.2983,4.59988,2470.24,2021-1-16T14:55:45Z
2021-01-16T12:57:46Z,42.805,6.029,13.2984,4.59987,2470.25,2021-1-16T14:58:48Z
2021-01-16T13:00:50Z,42.805,6.029,13.2986,4.59987,2470.287,2021-1-16T15:01:51Z
2021-01-16T13:03:53Z,42.805,6.029,13.2984,4.59987,2470.25,2021-1-16T15:04:54Z
2021-01-16T13:06:56Z,42.805,6.029,13.2980,4.59986,2470.227,2021-1-16T15:07:57Z
2021-01-16T13:09:59Z,42.805,6.029,13.2982,4.59987,2470.227,2021-1-16T15:11:00Z
2021-01-16T13:13:02Z,42.805,6.029,13.2983,4.59988,2470.25,2021-1-16T15:14:04Z
2021-01-16T13:16:05Z,42.805,6.029,13.2982,4.59986,2470.264,2021-1-16T15:17:07Z
2021-01-16T13:19:08Z,42.805,6.029,13.2982,4.59986,2470.227,2021-1-16T15:20:10Z
2021-01-16T13:22:11Z,42.805,6.029,13.2983,4.59986,2470.297,2021-1-16T15:23:13Z
2021-01-16T13:25:15Z,42.805,6.029,13.2982,4.59989,2470.24,2021-1-16T15:26:16Z
2021-01-16T13:28:18Z,42.805,6.029,13.2983,4.59986,2470.227,2021-1-16T15:29:19Z
2021-01-16T13:31:21Z,42.805,6.029,13.2983,4.59986,2470.203,2021-1-16T15:32:22Z
2021-01-16T13:34:24Z,42.805,6.029,13.2980,4.59989,2470.227,2021-1-16T15:35:25Z
2021-01-16T13:37:27Z,42.805,6.029,13.2983,4.59989,2470.273,2021-1-16T15:38:29Z
2021-01-16T13:40:30Z,42.805,6.029,13.2985,4.59986,2470.24,2021-1-16T15:41:32Z
2021-01-16T13:43:33Z,42.805,6.029,13.2984,4.59986,2470.273,2021-1-16T15:44:35Z
2021-01-16T13:46:37Z,42.805,6.029,13.2985,4.59987,2470.264,2021-1-16T15:47:38Z
2021-01-16T13:49:40Z,42.805,6.029,13.2982,4.59988,2470.264,2021-1-16T15:50:41Z
2021-01-16T13:52:43Z,42.805,6.029,13.2983,4.59987,2470.227,2021-1-16T15:53:44Z
2021-01-16T13:55:46Z,42.805,6.029,13.2983,4.59986,2470.24,2021-1-16T15:56:47Z
2021-01-16T13:58:49Z,42.805,6.029,13.2984,4.59987,2470.227,2021-1-16T15:59:51Z
2021-01-16T14:01:52Z,42.805,6.029,13.2983,4.59986,2470.203,2021-1-16T16:02:54Z
2021-01-16T14:04:55Z,42.805,6.029,13.2982,4.59988,2470.24,2021-1-16T16:05:57Z
2021-01-16T14:07:58Z,42.805,6.029,13.2983,4.59988,2470.227,2021-1-16T16:09:00Z
2021-01-16T14:11:02Z,42.805,6.029,13.2983,4.59986,2470.227,2021-1-16T16:12:03Z
2021-01-16T14:14:05Z,42.805,6.029,13.2986,4.59987,2470.24,2021-1-16T16:15:06Z
2021-01-16T14:17:08Z,42.805,6.029,13.2981,4.59987,2470.227,2021-1-16T16:18:09Z
2021-01-16T14:20:11Z,42.805,6.029,13.2982,4.59991,2470.217,2021-1-16T16:21:12Z
2021-01-16T14:23:14Z,42.805,6.029,13.2981,4.59990,2470.203,2021-1-16T16:24:16Z
2021-01-16T14:26:17Z,42.805,6.029,13.2982,4.59986,2470.203,2021-1-16T16:27:19Z
2021-01-16T14:29:20Z,42.805,6.029,13.2984,4.59986,2470.227,2021-1-16T16:30:22Z
2021-01-16T14:32:23Z,42.805,6.029,13.2983,4.59986,2470.203,2021-1-16T16:33:25Z
2021-01-16T14:35:27Z,42.805,6.029,13.2984,4.59986,2470.24,2021-1-16T16:36:28Z
2021-01-16T14:38:30Z,42.805,6.029,13.2983,4.59989,2470.227,2021-1-16T16:39:31Z
2021-01-16T14:41:33Z,42.805,6.029,13.2983,4.59988,2470.25,2021-1-16T16:42:34Z
2021-01-16T14:44:36Z,42.805,6.029,13.2984,4.59986,2470.227,2021-1-16T16:45:37Z
2021-01-16T14:47:39Z,42.805,6.029,13.2982,4.59986,2470.203,2021-1-16T16:48:41Z
2021-01-16T14:50:42Z,42.805,6.029,13.2981,4.59986,2470.203,2021-1-16T16:51:44Z
2021-01-16T14:53:45Z,42.805,6.029,13.2980,4.59987,2470.227,2021-1-16T16:54:47Z
2021-01-16T14:56:49Z,42.805,6.029,13.2980,4.59986,2470.217,2021-1-16T16:57:50Z
2021-01-16T14:59:52Z,42.805,6.029,13.2984,4.59988,2470.203,2021-1-16T17:00:53Z
2021-01-16T15:02:55Z,42.805,6.029,13.2983,4.59986,2470.133,2021-1-16T17:03:56Z
2021-01-16T15:05:58Z,42.805,6.029,13.2984,4.59987,2470.194,2021-1-16T17:06:59Z
2021-01-16T15:09:01Z,42.805,6.029,13.2982,4.59986,2470.203,2021-1-16T17:10:02Z
2021-01-16T15:12:04Z,42.805,6.029,13.2981,4.59986,2470.203,2021-1-16T17:13:06Z
2021-01-16T15:15:07Z,42.805,6.029,13.2984,4.59986,2470.18,2021-1-16T17:16:09Z